Weather History for KLDM - October, 2013

Change the Weather History Date:

Saturday, October 19, 2013

  Actual Average Record
Temperature  
Mean Temperature 48 °F -  
Max Temperature 55 °F 55 °F 76 °F (1971)
Min Temperature 41 °F 39 °F 23 °F (1974)
Degree Days  
Heating Degree Days 17    
Moisture  
Dew Point 37 °F    
Average Humidity 65    
Maximum Humidity 86    
Minimum Humidity 34    
Precipitation  
Precipitation 0.02 in - - ()
Sea Level Pressure  
Sea Level Pressure 29.77 in    
Wind  
Wind Speed 6 mph (WNW)    
Max Wind Speed 16 mph    
Max Gust Speed 23 mph    
Visibility 10 miles    
Events Rain    
Averages and records for this station are not official NWS values.
T = Trace of Precipitation, MM = Missing Value Source: NWS Daily Summary

Daily Weather History Graph

Daily Weather History Graph

Search for Another Location

Airport or City:

Trip Planner

Search our weather history database for the weather conditions in past years. The results will help you decide how hot, cold, wet, or windy it might be!

Date:

Astronomy

Oct. 19, 2013 Rise Set
Actual Time 8:05 AM EDT 6:54 PM EDT
Civil Twilight 7:36 AM EDT 7:24 PM EDT
Nautical Twilight 7:02 AM EDT 7:57 PM EDT
Astronomical Twilight 6:29 AM EDT 8:30 PM EDT
Moon 7:19 PM EDT (10/19) 8:44 AM EDT (10/19)
Length of Visible Light 11h 47m
Length of Day
10h 49m
Waxing Gibbous, 99% of the Moon is Illuminated
Oct 19
Waxing Gibbous
Oct 26
Last Quarter
Nov 3
New
Nov 10
First Quarter
Nov 17
Full

Hourly Weather History & Observations

Time (EDT) Temp. Windchill Dew Point Humidity Pressure Visibility Wind Dir Wind Speed Gust Speed Precip Events Conditions
12:15 AM 50.9 °F - 44.1 °F 77% 29.85 in 10.0 mi West 6.9 mph - N/A   Overcast
12:35 AM 50.9 °F - 44.1 °F 77% 29.84 in 10.0 mi Calm Calm - N/A   Overcast
12:55 AM 50.9 °F - 44.1 °F 77% 29.83 in 10.0 mi WNW 8.1 mph - N/A   Overcast
1:15 AM 50.9 °F - 45.0 °F 80% 29.83 in 10.0 mi NW 6.9 mph - N/A   Overcast
1:34 AM 50.9 °F - 46.0 °F 83% 29.83 in 10.0 mi NNW 8.1 mph - N/A   Light Drizzle
1:55 AM 50.9 °F - 44.6 °F 79% 29.83 in 10.0 mi NW 9.2 mph - N/A   Overcast
2:15 AM 50.9 °F - 43.9 °F 77% 29.83 in 10.0 mi NW 8.1 mph 17.3 mph N/A   Overcast
2:34 AM 50.9 °F - 43.9 °F 77% 29.83 in 10.0 mi WNW 9.2 mph - N/A   Overcast
2:55 AM 48.4 °F - 43.7 °F 84% 29.82 in 7.0 mi NW 5.8 mph - N/A   Light Drizzle
3:15 AM 48.4 °F - 43.9 °F 84% 29.83 in 7.0 mi WNW 8.1 mph - N/A Rain Light Rain
3:34 AM 46.9 °F - 43.0 °F 86% 29.82 in 10.0 mi NW 9.2 mph - N/A   Light Drizzle
3:55 AM 47.3 °F - 42.3 °F 83% 29.82 in 10.0 mi West 9.2 mph - N/A   Overcast
4:15 AM 47.1 °F - 41.4 °F 80% 29.81 in 10.0 mi West 6.9 mph - N/A   Overcast
4:35 AM 47.3 °F - 40.5 °F 77% 29.81 in 10.0 mi WNW 6.9 mph - N/A   Overcast
4:55 AM 46.2 °F 42.2 °F 38.7 °F 75% 29.81 in 10.0 mi WNW 8.1 mph - N/A   Overcast
5:15 AM 45.1 °F 42.8 °F 36.5 °F 72% 29.80 in 10.0 mi NW 4.6 mph - N/A   Scattered Clouds
5:35 AM 44.6 °F 41.4 °F 36.5 °F 73% 29.79 in 10.0 mi NW 5.8 mph - N/A   Mostly Cloudy
5:55 AM 44.8 °F 43.3 °F 35.2 °F 69% 29.79 in 10.0 mi NW 3.5 mph - N/A   Overcast
6:15 AM 44.6 °F 43.1 °F 35.6 °F 71% 29.79 in 10.0 mi NW 3.5 mph - N/A   Scattered Clouds
6:35 AM 44.6 °F 43.1 °F 35.6 °F 71% 29.79 in 10.0 mi NW 3.5 mph - N/A   Mostly Cloudy
6:55 AM 44.4 °F 42.9 °F 35.8 °F 72% 29.79 in 10.0 mi NW 3.5 mph - N/A   Mostly Cloudy
7:15 AM 43.7 °F 42.1 °F 35.4 °F 73% 29.79 in 10.0 mi NNW 3.5 mph - N/A   Scattered Clouds
7:35 AM 43.3 °F 41.7 °F 36.1 °F 76% 29.79 in 10.0 mi NNW 3.5 mph - N/A   Mostly Cloudy
7:55 AM 43.9 °F - 35.2 °F 72% 29.79 in 10.0 mi Calm Calm - N/A   Overcast
8:15 AM 43.7 °F - 34.9 °F 71% 29.79 in 10.0 mi Calm Calm - N/A   Overcast
8:35 AM 44.6 °F 43.1 °F 35.1 °F 69% 29.80 in 10.0 mi NW 3.5 mph - N/A   Overcast
8:55 AM 45.9 °F 44.6 °F 35.2 °F 66% 29.80 in 10.0 mi NW 3.5 mph - N/A   Overcast
9:55 AM 48.6 °F - 35.4 °F 60% 29.79 in 10.0 mi WNW 4.6 mph - N/A   Scattered Clouds
10:15 AM 48.4 °F - 35.4 °F 61% 29.79 in 10.0 mi WNW 4.6 mph - N/A   Scattered Clouds
10:35 AM 48.4 °F - 35.4 °F 61% 29.79 in 10.0 mi WNW 3.5 mph - N/A   Scattered Clouds
10:55 AM 50.9 °F - 34.0 °F 52% 29.78 in 10.0 mi West 6.9 mph - N/A   Scattered Clouds
11:15 AM 52.3 °F - 34.3 °F 50% 29.78 in 10.0 mi NW 8.1 mph - N/A   Scattered Clouds
11:35 AM 52.2 °F - 32.7 °F 48% 29.77 in 10.0 mi West 5.8 mph - N/A   Scattered Clouds
11:55 AM 53.6 °F - 32.9 °F 45% 29.77 in 10.0 mi West 8.1 mph - N/A   Scattered Clouds
12:15 PM 53.6 °F - 32.5 °F 45% 29.77 in 10.0 mi West 10.4 mph - N/A   Clear
12:35 PM 53.6 °F - 30.2 °F 41% 29.76 in 10.0 mi West 8.1 mph - N/A   Scattered Clouds
12:55 PM 54.9 °F - 32.5 °F 43% 29.76 in 10.0 mi WNW 10.4 mph - N/A   Scattered Clouds
1:15 PM 53.6 °F - 30.9 °F 42% 29.75 in 10.0 mi West 6.9 mph - N/A   Scattered Clouds
1:35 PM 55.0 °F - 31.1 °F 40% 29.74 in 10.0 mi WNW 9.2 mph - N/A   Scattered Clouds
1:55 PM 52.2 °F - 29.3 °F 41% 29.74 in 10.0 mi West 6.9 mph - N/A   Clear
2:14 PM 53.1 °F - 31.3 °F 43% 29.73 in 10.0 mi WSW 10.4 mph - N/A   Scattered Clouds
2:35 PM 55.2 °F - 30.4 °F 39% 29.73 in 10.0 mi West 8.1 mph - N/A   Scattered Clouds
2:55 PM 51.6 °F - 29.1 °F 42% 29.73 in 10.0 mi WNW 8.1 mph - N/A   Scattered Clouds
3:15 PM 50.9 °F - 30.7 °F 46% 29.72 in 10.0 mi West 6.9 mph - N/A   Scattered Clouds
3:35 PM 52.3 °F - 31.1 °F 44% 29.72 in 10.0 mi WSW 10.4 mph - N/A   Scattered Clouds
3:55 PM 55.0 °F - 31.1 °F 40% 29.72 in 10.0 mi WSW 9.2 mph - N/A   Scattered Clouds
4:15 PM 53.8 °F - 29.3 °F 39% 29.72 in 10.0 mi West 8.1 mph - N/A   Scattered Clouds
4:35 PM 53.6 °F - 25.7 °F 34% 29.72 in 10.0 mi West 9.2 mph - N/A   Clear
4:55 PM 51.4 °F - 28.4 °F 41% 29.72 in 10.0 mi SW 12.7 mph 16.1 mph N/A   Scattered Clouds
5:15 PM 50.9 °F - 34.9 °F 54% 29.72 in 10.0 mi WSW 11.5 mph 19.6 mph N/A   Scattered Clouds
5:35 PM 50.9 °F - 31.8 °F 48% 29.73 in 10.0 mi WSW 16.1 mph 23.0 mph N/A   Mostly Cloudy
5:55 PM 50.9 °F - 34.7 °F 54% 29.73 in 10.0 mi NW 5.8 mph - N/A   Mostly Cloudy
6:15 PM 48.4 °F - 32.4 °F 54% 29.73 in 10.0 mi NW 3.5 mph - N/A   Mostly Cloudy
6:35 PM 46.2 °F - 33.1 °F 60% 29.73 in 10.0 mi Calm Calm - N/A   Scattered Clouds
6:55 PM 44.6 °F - 33.6 °F 65% 29.73 in 10.0 mi Calm Calm - N/A   Mostly Cloudy
7:15 PM 44.1 °F 41.5 °F 37.4 °F 77% 29.74 in 5.0 mi SE 4.6 mph - N/A   Overcast
7:35 PM 43.3 °F 41.7 °F 38.8 °F 84% 29.74 in 10.0 mi East 3.5 mph - 0.01 in   Mostly Cloudy
7:55 PM 41.9 °F - 38.1 °F 86% 29.74 in 10.0 mi Calm Calm - 0.01 in   Mostly Cloudy
8:15 PM 42.1 °F - 38.3 °F 86% 29.74 in 10.0 mi Calm Calm - N/A   Scattered Clouds
8:35 PM 42.4 °F - 38.5 °F 86% 29.74 in 10.0 mi Calm Calm - N/A   Mostly Cloudy
8:55 PM 43.2 °F 40.5 °F 38.1 °F 82% 29.74 in 10.0 mi East 4.6 mph - N/A   Scattered Clouds
9:15 PM 42.4 °F 37.5 °F 37.9 °F 84% 29.74 in 10.0 mi ESE 8.1 mph - N/A   Mostly Cloudy
9:35 PM 43.2 °F - 38.7 °F 84% 29.74 in 10.0 mi Calm Calm - 0.01 in   Overcast
9:55 PM 48.9 °F - 41.0 °F 74% 29.74 in 10.0 mi West 10.4 mph 18.4 mph 0.01 in   Mostly Cloudy
10:15 PM 50.9 °F - 41.9 °F 71% 29.74 in 10.0 mi West 12.7 mph 19.6 mph N/A   Scattered Clouds
10:35 PM 50.9 °F - 39.6 °F 65% 29.75 in 10.0 mi West 6.9 mph 16.1 mph N/A   Mostly Cloudy
10:54 PM 50.9 °F - 38.3 °F 62% 29.75 in 10.0 mi West 13.8 mph 21.9 mph N/A   Mostly Cloudy
11:15 PM 50.9 °F - 39.6 °F 65% 29.75 in 10.0 mi West 11.5 mph 16.1 mph N/A   Overcast
11:35 PM 50.7 °F - 40.3 °F 67% 29.75 in 10.0 mi West 9.2 mph 19.6 mph N/A   Mostly Cloudy
11:54 PM 48.4 °F - 38.1 °F 68% 29.75 in 10.0 mi West 9.2 mph 17.3 mph N/A   Mostly Cloudy